Regional Weather Roundup
Issued by NWS Upton, NY

Current Version | Previous Version | Text Only | Print | Product List | Glossary On
Versions: 1 2 3 4 5 6 7 8 9 10 11 12 13 14 15 16 17 18 19 20 21 22 23 24 25 26 27 28 29 30 31 32 33 34 35 36 37 38 39 40 41 42 43 44 45 46 47 48 49 50
000 ASUS41 KOKX 240405 RWROKX REGIONAL WEATHER ROUNDUP NATIONAL WEATHER SERVICE NEW YORK NY 1100 PM EST SUN NOV 23 2014 NOTE: "FAIR" INDICATES FEW OR NO CLOUDS BELOW 12,000 FEET WITH NO SIGNIFICANT WEATHER AND/OR OBSTRUCTIONS TO VISIBILITY. NYZ071-072-176-178-NJZ106-104-240500- NEW YORK CITY METRO AREA CITY SKY/WX TMP DP RH WIND PRES REMARKS CENTRAL PARK CLOUDY 54 47 77 S3 30.05F LAGUARDIA APRT CLOUDY 51 48 89 E6 30.03F KENNEDY INTL CLOUDY 55 51 86 SE6 30.04F NEWARK/LIBERTY CLOUDY 50 42 74 CALM 30.03F BRNX BOT. GARD N/A 48 43 81 NE2 30.05F TETERBORO CLOUDY 48 32 53 CALM 30.02F $$ NYZ177-179-078>081-240500- LONG ISLAND NEW YORK CITY SKY/WX TMP DP RH WIND PRES REMARKS FARMINGDALE CLOUDY 49 46 90 CALM 30.05F ISLIP CLOUDY 47 44 90 E6 30.05F FOG SHIRLEY CLOUDY 42 37 82 CALM 30.08F WESTHAMPTON CLOUDY 43 38 82 SE3 30.09F MONTAUK POINT N/A 49 46 90 CALM 30.11F $$ NYZ052-065-067-240500- HUDSON VALLEY CITY SKY/WX TMP DP RH WIND PRES REMARKS WHITE PLAINS CLOUDY 46 39 76 E6 30.03F NEWBURGH MOCLDY 46 34 61 VRB6 30.03F MONTGOMERY CLOUDY 37 29 72 CALM 30.01F POUGHKEEPSIE CLOUDY 48 31 51 SE5 30.03F ALBANY CLOUDY 50 27 40 S9 30.00F $$ NJZ001-105-106-008-010-013-015-019>022-104-240500- NEW JERSEY CITY SKY/WX TMP DP RH WIND PRES REMARKS NEWARK/LIBERTY CLOUDY 50 42 74 CALM 30.03F TETERBORO CLOUDY 48 32 53 CALM 30.02F CALDWELL CLOUDY 45 30 55 NE3 30.03F MORRISTOWN N/A 43 32 65 CALM 30.03F SOMERVILLE CLOUDY 42 30 62 NW6 29.99F SUSSEX CLOUDY 39 30 70 CALM 30.01F ANDOVER N/A 47 36 65 S3 30.00F TRENTON CLOUDY 49 43 80 E6 29.98F MILLVILLE LGT RAIN 58 54 86 SE10 29.97F ATLANTIC CITY CLOUDY 58 53 84 SE10 29.99F WRIGHTSTOWN CLOUDY 54 49 82 S7 29.97F TOMS RIVER CLOUDY 54 48 82 SE3 30.02F BELMAR CLOUDY 55 46 71 SE8 30.01F $$ PAZ047>061-062-071-240500- EASTERN PENNSYLVANIA CITY SKY/WX TMP DP RH WIND PRES REMARKS PHILADELPHIA CLOUDY 57 50 77 SE10 29.97F ALLENTOWN CLOUDY 50 37 61 E5 29.97F SCRANTON CLOUDY 52 40 63 S12 29.93F $$ CTZ002-004>006-009-010-012-RIZ004-006-007-MAZ004-011-015-240500- SOUTHERN NEW ENGLAND IN CT CITY SKY/WX TMP DP RH WIND PRES REMARKS BRADLEY INTL CLOUDY 44 33 65 S3 30.07F HARTFORD MOCLDY 40 33 76 CALM 30.08F DANBURY CLOUDY 40 29 64 CALM 30.06F WTRBRY/OXFORD CLOUDY 45 36 70 SE6 30.08F BRIDGEPORT CLOUDY 45 39 79 NE6 30.07F MERIDEN CLOUDY 38 33 82 CALM 30.08F NEW HAVEN CLOUDY 44 36 73 N3 30.08F CHESTER FAIR 43 39 87 CALM 30.10F GROTON CLOUDY 38 36 92 N5 30.10F FOG WCI 34 WILLIMANTIC MOCLDY 37 29 72 CALM 30.11F IN RI CITY SKY/WX TMP DP RH WIND PRES REMARKS PROVIDENCE CLEAR 41 37 86 CALM 30.13F BLOCK ISLAND MOCLDY 52 48 87 S6 30.12F WESTERLY MOCLDY 38 35 89 CALM 30.12F IN MA CITY SKY/WX TMP DP RH WIND PRES REMARKS BOSTON PTCLDY 44 37 76 SW6 30.12F WORCESTER CLEAR 40 29 64 SW9 30.08F WCI 34 WESTFIELD MOCLDY 41 29 62 CALM 30.08F PROVINCETOWN CLEAR 46 45 93 S8 30.15R NANTUCKET CLEAR 50 48 93 S5 30.16F FOG $$ ANZ330-335-338-340-345-350-353-355-240500- COASTAL MARINE OBSERVATIONS STATION/POSITION TIME SKY/WX TEMP WIND PRES VSBY WAVE AIR SEA DIR/SP/G HT/PER (UTC) (F) (DEG/KT/KT) (MB) (MI) (FT/S) NY HARB ENTRANCE 0400 57 54 160/ 12/ 12 1017.3 3/ 6 4S FIRE IS 0400 53 N/A 3/ 6 20S FIRE ISLAND 0400 58 55 150/ 12/ 14 1017.3 3/ 5 23SW MTP 0400 N/A 4/ 6 HUDSON CANYON 0400 60 59 150/ 14/ 17 1018.2 3/ 5 EXECUTION ROCKS NOT AVBL WESTERN LI SOUND NOT AVBL CENTRAL LI SOUND NOT AVBL EASTERN LI SOUND NOT AVBL ROBBINS REEF 0400 51 170/ 7/ 8 1015.6 $$ >>>>>>>>>>>>>>>>>>>>>>>>>>>> KEY <<<<<<<<<<<<<<<<<<<<<<<<<<< > < > SKY/WX - SKY CONDITION/PRESENT WEATHER < > TMP - TEMPERATURE IN FAHRENHEIT < > DP - DEWPOINT IN FAHRENHEIT < > RH - RELATIVE HUMIDITY IN PERCENT < > WIND - DIRECTION AND SPEED IN MPH < > PRES - MEAN SEA LEVEL PRESSURE IN INCHES OF HG < > WCI - WIND CHILL INDEX < > VSB - VISIBILITY IN MILES < > HX - HEAT INDEX < > TC - TEMPERATURE IN CELSIUS < > VRB - VARIABLE WIND DIRECTION < > < >>>>>>>>>>>>>>>>>>>>>>>>>>>> KEY <<<<<<<<<<<<<<<<<<<<<<<<<<<

USA.gov is the U.S. government's official web portal to all federal, state and local government web resources and services.